FW6650 Weather Reports


Display with metric or nautical units.
time (UTC)temp
F
wind
direction
speed
MPH
gust
MPH
rain 1hr
in
rain 24hr
in
rain mn
in
humidity
%
barometer
mb
20260507183525 67 0 0.0 2.0 0.00 0.00 0.00 48 1017.1
20260507183036 67 15 0.0 3.0 0.00 0.00 0.00 48 1017.0
20260507182523 67 15 0.0 3.0 0.00 0.00 0.00 47 1017.0
20260507182026 67 0 0.0 3.0 0.00 0.00 0.00 47 1017.1
20260507181533 67 0 1.0 4.0 0.00 0.00 0.00 48 1017.0
20260507181026 67 0 0.0 4.0 0.00 0.00 0.00 48 1017.0
20260507180528 67 13 1.0 4.0 0.00 0.00 0.00 48 1017.0
20260507180033 67 294 0.0 2.0 0.00 0.00 0.00 48 1017.0
20260507175527 67 0 0.0 4.0 0.00 0.00 0.00 47 1017.1
20260507175027 67 293 1.0 4.0 0.00 0.00 0.00 49 1017.0
20260507174546 67 282 1.0 3.0 0.00 0.00 0.00 49 1016.8
20260507174027 67 281 2.0 4.0 0.00 0.00 0.00 49 1016.8
20260507173529 67 0 0.0 4.0 0.00 0.00 0.00 50 1017.0
20260507173040 67 278 2.0 4.0 0.00 0.00 0.00 50 1016.9
20260507172526 67 277 1.0 7.0 0.00 0.00 0.00 49 1016.8
20260507172027 67 0 2.0 7.0 0.00 0.00 0.00 49 1016.9
20260507171550 67 268 3.0 8.0 0.00 0.00 0.00 50 1016.8
20260507171028 68 278 4.0 8.0 0.00 0.00 0.00 50 1016.7
20260507170528 68 254 3.0 6.0 0.00 0.00 0.00 50 1016.6
20260507170035 69 229 3.0 6.0 0.00 0.00 0.00 48 1016.3
20260507165528 69 109 0.0 8.0 0.00 0.00 0.00 47 1016.2
20260507165027 68 109 3.0 12.0 0.00 0.00 0.00 48 1016.1
20260507164538 68 69 5.0 12.0 0.00 0.00 0.00 51 1016.0
20260507164028 68 85 5.0 12.0 0.00 0.00 0.00 51 1016.2
20260507163528 69 92 4.0 11.0 0.00 0.00 0.00 49 1016.3
20260507163033 69 85 3.0 8.0 0.00 0.00 0.00 47 1016.3
20260507162527 69 360 3.0 8.0 0.00 0.00 0.00 45 1016.5
20260507162027 70 360 2.0 8.0 0.00 0.00 0.00 43 1016.6
20260507161545 70 360 4.0 8.0 0.00 0.00 0.00 41 1016.5
20260507161028 71 360 1.0 3.0 0.00 0.00 0.00 36 1016.5
20260507160527 71 0 0.0 3.0 0.00 0.00 0.00 34 1016.5
20260507160059 72 360 0.0 4.0 0.00 0.00 0.00 29 1016.4
20260507155527 72 214 1.0 8.0 0.00 0.00 0.00 30 1016.5
20260507155028 72 0 2.0 10.0 0.00 0.00 0.00 29 1016.6
20260507154536 72 360 4.0 12.0 0.00 0.00 0.00 29 1016.6
20260507154028 73 247 4.0 12.0 0.00 0.00 0.00 29 1016.7
20260507153527 73 229 4.0 11.0 0.00 0.00 0.00 29 1016.6
20260507153036 73 267 7.0 12.0 0.00 0.00 0.00 30 1016.7
20260507152527 73 243 6.0 14.0 0.00 0.00 0.00 30 1016.8
20260507152028 73 215 7.0 14.0 0.00 0.00 0.00 30 1016.8
20260507151535 73 223 6.0 13.0 0.00 0.00 0.00 31 1016.7
20260507151027 73 249 7.0 13.0 0.00 0.00 0.00 30 1016.7
20260507150530 74 252 5.0 11.0 0.00 0.00 0.00 30 1016.7
20260507150039 73 254 6.0 13.0 0.00 0.00 0.00 30 1016.7
20260507145528 73 256 5.0 15.0 0.00 0.00 0.00 31 1016.6
20260507145031 73 233 6.0 15.0 0.00 0.00 0.00 30 1016.7
20260507144537 73 240 10.0 14.0 0.00 0.00 0.00 29 1016.8
20260507144028 74 252 6.0 14.0 0.00 0.00 0.00 30 1016.6
20260507143528 74 241 6.0 13.0 0.00 0.00 0.00 29 1016.7
20260507143042 74 263 7.0 12.0 0.00 0.00 0.00 31 1016.6
20260507142528 74 243 6.0 14.0 0.00 0.00 0.00 31 1016.7
20260507142031 74 211 7.0 15.0 0.00 0.00 0.00 31 1016.8
20260507141542 74 248 7.0 15.0 0.00 0.00 0.00 30 1016.7
20260507141027 75 269 7.0 15.0 0.00 0.00 0.00 29 1016.6
20260507140527 75 265 6.0 17.0 0.00 0.00 0.00 29 1016.4
20260507140046 75 231 9.0 17.0 0.00 0.00 0.00 28 1016.2
20260507135528 76 262 4.0 16.0 0.00 0.00 0.00 28 1016.3
20260507135030 76 259 8.0 16.0 0.00 0.00 0.00 28 1016.2
20260507134536 76 261 5.0 13.0 0.00 0.00 0.00 29 1016.1
20260507134027 76 238 7.0 13.0 0.00 0.00 0.00 27 1016.1
20260507133527 76 257 6.0 11.0 0.00 0.00 0.00 26 1016.0
20260507133034 76 244 3.0 11.0 0.00 0.00 0.00 26 1016.1
20260507132527 76 253 4.0 11.0 0.00 0.00 0.00 26 1016.2
20260507132028 76 262 6.0 11.0 0.00 0.00 0.00 26 1016.0
20260507131605 76 235 4.0 11.0 0.00 0.00 0.00 24 1016.1
20260507131028 75 219 6.0 11.0 0.00 0.00 0.00 29 1016.3
20260507130528 75 266 5.0 11.0 0.00 0.00 0.00 30 1016.2
20260507130035 74 260 5.0 11.0 0.00 0.00 0.00 32 1016.4
20260507125528 74 252 5.0 12.0 0.00 0.00 0.00 32 1016.5
20260507125028 74 241 7.0 12.0 0.00 0.00 0.00 32 1016.6
20260507124550 74 259 5.0 12.0 0.00 0.00 0.00 32 1016.7
20260507124027 74 253 7.0 13.0 0.00 0.00 0.00 31 1016.7
20260507123527 74 272 7.0 13.0 0.00 0.00 0.00 29 1016.8
20260507123041 75 229 5.0 13.0 0.00 0.00 0.00 31 1016.7
20260507122527 75 224 5.0 13.0 0.00 0.00 0.00 31 1016.8
20260507122027 75 240 8.0 15.0 0.00 0.00 0.00 29 1016.9
20260507121536 76 223 8.0 15.0 0.00 0.00 0.00 27 1016.9
20260507121028 76 231 8.0 15.0 0.00 0.00 0.00 25 1017.0
20260507120529 77 213 7.0 14.0 0.00 0.00 0.00 26 1017.0
20260507120040 77 221 6.0 13.0 0.00 0.00 0.00 28 1016.8
20260507115627 77 254 5.0 14.0 0.00 0.00 0.00 25 1016.8
20260507115027 76 240 9.0 14.0 0.00 0.00 0.00 28 1016.8
20260507114539 76 265 8.0 15.0 0.00 0.00 0.00 29 1017.0
20260507114028 75 263 6.0 15.0 0.00 0.00 0.00 35 1017.0
20260507113528 75 243 9.0 15.0 0.00 0.00 0.00 33 1017.0
20260507113102 76 255 7.0 18.0 0.00 0.00 0.00 37 1017.0
20260507112530 76 205 10.0 18.0 0.00 0.00 0.00 34 1017.0
20260507112027 77 244 7.0 20.0 0.00 0.00 0.00 36 1017.1
20260507111536 77 220 6.0 20.0 0.00 0.00 0.00 31 1017.1
20260507111027 77 223 7.0 16.0 0.00 0.00 0.00 28 1017.1
20260507110527 75 268 8.0 16.0 0.00 0.00 0.00 38 1016.8
20260507110044 76 225 9.0 16.0 0.00 0.00 0.00 35 1017.0
20260507105527 77 236 8.0 15.0 0.00 0.00 0.00 32 1017.2
20260507105027 76 264 6.0 17.0 0.00 0.00 0.00 33 1017.1
20260507104556 75 246 11.0 17.0 0.00 0.00 0.00 33 1017.0
20260507104027 76 236 7.0 14.0 0.00 0.00 0.00 40 1016.9
20260507103526 75 240 7.0 13.0 0.00 0.00 0.00 43 1016.7
20260507103040 75 220 5.0 12.0 0.00 0.00 0.00 45 1016.6
20260507102530 75 247 5.0 12.0 0.00 0.00 0.00 47 1016.5
20260507102027 75 249 7.0 12.0 0.00 0.00 0.00 49 1016.6
20260507101536 75 269 4.0 12.0 0.00 0.00 0.00 51 1016.7
20260507101026 75 259 4.0 12.0 0.00 0.00 0.00 52 1016.7
20260507100526 74 250 6.0 12.0 0.00 0.00 0.00 53 1016.7
20260507100043 74 290 6.0 12.0 0.00 0.00 0.00 53 1016.8
20260507095527 75 217 4.0 11.0 0.00 0.00 0.00 53 1016.8
20260507095030 74 247 5.0 12.0 0.00 0.00 0.00 53 1016.8
20260507094537 74 277 5.0 12.0 0.00 0.00 0.00 53 1016.8
20260507094028 75 222 5.0 11.0 0.00 0.00 0.00 53 1016.7
20260507093527 74 218 3.0 10.0 0.00 0.00 0.00 51 1016.8
20260507093038 75 213 5.0 10.0 0.00 0.00 0.00 48 1016.8
20260507092527 75 300 2.0 10.0 0.00 0.00 0.00 47 1016.7
20260507092027 74 231 4.0 10.0 0.00 0.00 0.00 48 1016.7
20260507091543 74 271 6.0 11.0 0.00 0.00 0.00 48 1016.8
20260507091027 74 244 6.0 11.0 0.00 0.00 0.00 47 1016.8
20260507090527 74 236 5.0 10.0 0.00 0.00 0.00 47 1016.6
20260507090040 74 253 2.0 6.0 0.00 0.00 0.00 45 1016.6
20260507085526 74 196 2.0 6.0 0.00 0.00 0.00 45 1016.7
20260507085027 73 198 0.0 6.0 0.00 0.00 0.00 47 1016.7
20260507084549 74 216 2.0 6.0 0.00 0.00 0.00 46 1016.8
20260507084027 73 238 1.0 5.0 0.00 0.00 0.00 47 1016.8
20260507083527 73 220 1.0 5.0 0.00 0.00 0.00 46 1016.7
20260507083036 72 248 2.0 6.0 0.00 0.00 0.00 47 1016.7
20260507082528 73 281 1.0 6.0 0.00 0.00 0.00 47 1016.7
20260507082027 73 259 1.0 9.0 0.00 0.00 0.00 47 1016.7
20260507081539 72 279 3.0 9.0 0.00 0.00 0.00 48 1016.7
20260507081027 72 272 5.0 9.0 0.00 0.00 0.00 48 1016.7
20260507080526 72 261 3.0 7.0 0.00 0.00 0.00 48 1016.8
20260507080040 72 222 3.0 6.0 0.00 0.00 0.00 47 1016.7
20260507075527 72 232 1.0 7.0 0.00 0.00 0.00 47 1016.7
20260507075027 71 241 3.0 7.0 0.00 0.00 0.00 46 1016.7
20260507074541 72 0 0.0 4.0 0.00 0.00 0.00 46 1016.6
20260507074026 71 262 1.0 4.0 0.00 0.00 0.00 47 1016.6
20260507073526 71 265 1.0 6.0 0.00 0.00 0.00 48 1016.6
20260507073037 70 265 2.0 6.0 0.00 0.00 0.00 48 1016.4
20260507072527 70 262 1.0 4.0 0.00 0.00 0.00 49 1016.4
20260507072026 70 286 1.0 4.0 0.00 0.00 0.00 50 1016.4
20260507071537 71 280 0.0 4.0 0.00 0.00 0.00 48 1016.5
20260507071027 70 276 1.0 4.0 0.00 0.00 0.00 51 1016.7
20260507070527 69 0 0.0 4.0 0.00 0.00 0.00 51 1016.6
20260507070033 69 268 1.0 6.0 0.00 0.00 0.00 51 1016.6
20260507065527 69 269 3.0 6.0 0.00 0.00 0.00 51 1016.7
20260507065027 70 227 1.0 4.0 0.00 0.00 0.00 50 1016.7
20260507064546 70 235 1.0 6.0 0.00 0.00 0.00 49 1016.7
20260507064027 69 242 2.0 6.0 0.00 0.00 0.00 50 1016.5
20260507063528 68 264 1.0 7.0 0.00 0.00 0.00 50 1016.5
20260507063033 68 229 3.0 7.0 0.00 0.00 0.00 49 1016.5
20260507062527 68 244 4.0 7.0 0.00 0.00 0.00 48 1016.5
20260507062027 68 218 4.0 8.0 0.00 0.00 0.00 50 1016.4
20260507061538 68 225 4.0 8.0 0.00 0.00 0.00 53 1016.4
20260507061027 68 241 4.0 8.0 0.00 0.00 0.00 54 1016.3
20260507060527 68 263 2.0 7.0 0.00 0.00 0.00 54 1016.3
20260507060040 68 191 4.0 7.0 0.00 0.00 0.00 53 1016.2
20260507055528 68 185 5.0 7.0 0.00 0.00 0.00 54 1016.1
20260507055028 69 228 3.0 5.0 0.00 0.00 0.00 53 1016.1
20260507054540 68 0 0.0 3.0 0.00 0.00 0.00 55 1015.9
20260507054026 67 0 0.0 3.0 0.00 0.00 0.00 57 1015.8
20260507053526 66 360 1.0 4.0 0.00 0.00 0.00 57 1015.7
20260507053041 66 0 1.0 4.0 0.00 0.00 0.00 58 1015.7
20260507052529 65 5 2.0 4.0 0.00 0.00 0.00 58 1015.7
20260507052027 65 23 2.0 3.0 0.00 0.00 0.00 58 1015.7
20260507051534 65 0 0.0 3.0 0.00 0.00 0.00 59 1015.7
20260507051026 64 0 1.0 3.0 0.00 0.00 0.00 60 1015.7
20260507050526 63 68 1.0 3.0 0.00 0.00 0.00 61 1015.6
20260507050058 63 68 1.0 3.0 0.00 0.00 0.00 61 1015.7
20260507045527 63 68 0.0 3.0 0.00 0.00 0.00 63 1015.8
20260507045027 62 69 1.0 3.0 0.00 0.00 0.00 63 1015.8
20260507044546 62 69 1.0 2.0 0.00 0.00 0.00 64 1015.7
20260507044026 62 69 1.0 2.0 0.00 0.00 0.00 65 1015.7
20260507043529 62 70 0.0 2.0 0.00 0.00 0.00 65 1015.7
20260507043033 62 0 0.0 2.0 0.00 0.00 0.00 66 1015.7
20260507042527 61 70 0.0 2.0 0.00 0.00 0.00 66 1015.6
20260507042026 60 0 0.0 0.0 0.00 0.00 0.00 66 1015.6
20260507041537 60 0 0.0 0.0 0.00 0.00 0.00 66 1015.7
20260507041030 60 0 0.0 1.0 0.00 0.00 0.00 67 1015.8
20260507040527 59 0 0.0 4.0 0.00 0.00 0.00 67 1015.8
20260507040039 59 0 0.0 4.0 0.00 0.00 0.00 67 1015.9
20260507035527 59 70 2.0 4.0 0.00 0.00 0.00 68 1015.8
20260507035029 58 67 2.0 4.0 0.00 0.00 0.00 69 1016.0
20260507034539 58 42 1.0 3.0 0.00 0.00 0.00 69 1016.0
20260507034026 58 0 0.0 0.0 0.00 0.00 0.00 69 1015.7
20260507033526 58 0 0.0 0.0 0.00 0.00 0.00 68 1015.7
20260507033040 59 0 0.0 3.0 0.00 0.00 0.00 68 1015.6
20260507032526 59 0 0.0 3.0 0.00 0.00 0.00 68 1015.5
20260507032027 59 40 1.0 3.0 0.00 0.00 0.00 67 1015.5
20260507031536 59 0 0.0 1.0 0.00 0.00 0.00 66 1015.6
20260507031031 59 0 0.0 2.0 0.00 0.00 0.00 66 1015.5
20260507030527 59 0 0.0 2.0 0.00 0.00 0.00 66 1015.5
20260507030038 59 0 0.0 3.0 0.00 0.00 0.00 66 1015.5
20260507025527 59 0 0.0 4.0 0.00 0.00 0.00 66 1015.4
20260507025027 60 27 2.0 4.0 0.00 0.00 0.00 65 1015.4
20260507024546 60 29 2.0 4.0 0.00 0.00 0.00 65 1015.3
20260507024026 60 0 0.0 5.0 0.00 0.00 0.00 64 1015.4
20260507023527 60 0 1.0 5.0 0.00 0.00 0.00 64 1015.3
20260507023038 60 144 2.0 5.0 0.00 0.00 0.00 64 1015.4
20260507022527 60 0 1.0 4.0 0.00 0.00 0.00 63 1015.4
20260507022027 60 208 2.0 6.0 0.00 0.00 0.00 63 1015.3
20260507021547 60 207 2.0 7.0 0.00 0.00 0.00 62 1015.3
20260507021027 60 206 3.0 7.0 0.00 0.00 0.00 63 1015.3
20260507020527 60 188 4.0 7.0 0.00 0.00 0.00 62 1015.2
20260507020036 60 200 4.0 7.0 0.00 0.00 0.00 61 1015.3
20260507015526 60 205 4.0 7.0 0.00 0.00 0.00 61 1015.3
20260507015026 60 194 3.0 7.0 0.00 0.00 0.00 61 1015.2
20260507014540 60 194 4.0 6.0 0.00 0.00 0.00 61 1015.2
20260507014029 60 205 4.0 6.0 0.00 0.00 0.00 61 1015.2
20260507013526 60 198 3.0 5.0 0.00 0.00 0.00 62 1015.1
20260507013038 60 205 2.0 4.0 0.00 0.00 0.00 62 1015.0
20260507012526 60 177 2.0 3.0 0.00 0.00 0.00 62 1015.0
20260507012027 59 176 1.0 3.0 0.00 0.00 0.00 62 1014.9
20260507011538 60 176 1.0 5.0 0.00 0.00 0.00 62 1014.6
20260507011026 60 179 2.0 5.0 0.00 0.00 0.00 62 1014.5
20260507010526 60 192 2.0 4.0 0.00 0.00 0.00 63 1014.5
20260507010042 59 185 2.0 4.0 0.00 0.00 0.00 62 1014.6
20260507005527 59 182 2.0 4.0 0.00 0.00 0.00 62 1014.5
20260507005030 59 159 1.0 3.0 0.00 0.00 0.00 62 1014.5
20260507004535 60 88 1.0 3.0 0.00 0.00 0.00 62 1014.5
20260507004026 61 55 0.0 3.0 0.00 0.00 0.00 61 1014.5
20260507003527 61 55 1.0 3.0 0.00 0.00 0.00 60 1014.5
20260507003036 61 55 1.0 4.0 0.00 0.00 0.00 60 1014.4
20260507002526 61 58 2.0 4.0 0.00 0.00 0.00 60 1014.4
20260507002027 61 59 2.0 4.0 0.00 0.00 0.00 59 1014.4
20260507001535 61 66 1.0 3.0 0.00 0.00 0.00 59 1014.6
20260507001026 61 65 1.0 2.0 0.00 0.00 0.00 60 1014.6
20260507000526 61 66 0.0 1.0 0.00 0.00 0.00 60 1014.7
20260507000036 61 0 0.0 1.0 0.00 0.00 0.00 60 1014.8
20260506235527 61 0 0.0 1.0 0.00 0.00 0.00 60 1014.9
20260506235026 61 0 0.0 2.0 0.00 0.00 0.00 59 1015.0
20260506234543 61 0 0.0 2.0 0.00 0.00 0.00 59 1015.1
20260506234026 61 66 1.0 2.0 0.00 0.00 0.00 58 1015.2
20260506233527 60 65 1.0 3.0 0.00 0.00 0.00 58 1015.2
20260506233034 60 65 1.0 3.0 0.00 0.00 0.00 58 1015.3
20260506232525 60 65 1.0 3.0 0.00 0.00 0.00 58 1015.3
20260506232027 60 64 1.0 3.0 0.00 0.00 0.00 58 1015.2
20260506231536 61 62 1.0 3.0 0.00 0.00 0.00 58 1015.4
20260506231026 60 61 1.0 3.0 0.00 0.00 0.00 58 1015.3
20260506230527 60 52 1.0 2.0 0.00 0.00 0.00 59 1015.3
20260506230034 61 0 0.0 0.0 0.00 0.00 0.00 58 1015.4
20260506225526 61 0 0.0 0.0 0.00 0.00 0.00 58 1015.3
20260506225026 61 0 0.0 0.0 0.00 0.00 0.00 59 1015.3
20260506224545 62 0 0.0 0.0 0.00 0.00 0.00 60 1015.3
20260506224027 62 0 0.0 0.0 0.00 0.00 0.00 59 1015.4
20260506223526 62 0 0.0 0.0 0.00 0.00 0.00 59 1015.5
20260506223035 62 0 0.0 0.0 0.00 0.00 0.00 59 1015.4
20260506222526 62 0 0.0 0.0 0.00 0.00 0.00 59 1015.5
20260506222027 62 0 0.0 0.0 0.00 0.00 0.00 58 1015.5
20260506221532 62 0 0.0 0.0 0.00 0.00 0.00 57 1015.5
20260506221026 63 0 0.0 0.0 0.00 0.00 0.00 56 1015.5
20260506220526 62 0 0.0 0.0 0.00 0.00 0.00 58 1015.4
20260506220038 62 0 0.0 1.0 0.00 0.00 0.00 57 1015.5
20260506215526 62 0 0.0 1.0 0.00 0.00 0.00 57 1015.6
20260506215025 62 0 0.0 2.0 0.00 0.00 0.00 58 1015.5
20260506214539 62 0 0.0 2.0 0.00 0.00 0.00 57 1015.6
20260506214027 62 24 1.0 2.0 0.00 0.00 0.00 57 1015.7
20260506213526 62 24 0.0 2.0 0.00 0.00 0.00 56 1015.7
20260506213035 63 0 0.0 0.0 0.00 0.00 0.00 55 1015.9
20260506212529 63 0 0.0 1.0 0.00 0.00 0.00 56 1015.8
20260506212030 63 0 0.0 1.0 0.00 0.00 0.00 55 1015.9
20260506211538 63 0 0.0 2.0 0.00 0.00 0.00 54 1015.9
20260506211026 63 0 0.0 3.0 0.00 0.00 0.00 54 1015.9
20260506210527 63 22 1.0 3.0 0.00 0.00 0.00 54 1015.9
20260506210040 63 16 1.0 2.0 0.00 0.00 0.00 54 1016.0
20260506205526 63 10 1.0 2.0 0.00 0.00 0.00 54 1016.1
20260506205026 63 360 0.0 2.0 0.00 0.00 0.00 53 1016.1
20260506204549 63 5 0.0 2.0 0.00 0.00 0.00 53 1016.0
20260506204025 64 5 0.0 2.0 0.00 0.00 0.00 53 1016.0
20260506203525 64 5 0.0 2.0 0.00 0.00 0.00 53 1016.0
20260506203037 64 0 0.0 2.0 0.00 0.00 0.00 53 1016.1
20260506202526 64 0 0.0 2.0 0.00 0.00 0.00 54 1016.1
20260506202029 64 9 0.0 2.0 0.00 0.00 0.00 54 1016.0
20260506201539 64 360 1.0 2.0 0.00 0.00 0.00 54 1015.9
20260506201026 64 360 1.0 2.0 0.00 0.00 0.00 54 1016.0
20260506200526 64 360 0.0 2.0 0.00 0.00 0.00 53 1015.9
20260506200036 65 0 0.0 1.0 0.00 0.00 0.00 54 1015.8
20260506195526 65 0 0.0 1.0 0.00 0.00 0.00 53 1015.8
20260506195026 65 0 0.0 1.0 0.00 0.00 0.00 53 1015.8
20260506194537 65 0 0.0 2.0 0.00 0.00 0.00 53 1015.7
20260506194023 66 0 0.0 2.0 0.00 0.00 0.00 52 1015.7
20260506193527 66 360 1.0 2.0 0.00 0.00 0.00 52 1015.6
20260506193035 66 355 0.0 2.0 0.00 0.00 0.00 52 1015.5
20260506192526 67 0 0.0 0.0 0.00 0.00 0.00 49 1015.5
20260506192026 67 0 0.0 0.0 0.00 0.00 0.00 49 1015.4
20260506191536 67 0 0.0 0.0 0.00 0.00 0.00 49 1015.4
20260506191026 67 0 0.0 0.0 0.00 0.00 0.00 49 1015.3
20260506190526 67 0 0.0 1.0 0.00 0.00 0.00 49 1015.3
20260506190035 67 0 0.0 2.0 0.00 0.00 0.00 48 1015.3
20260506185526 67 0 0.0 2.0 0.00 0.00 0.00 47 1015.3
20260506185026 67 355 0.0 2.0 0.00 0.00 0.00 46 1015.3
20260506184541 68 0 0.0 3.0 0.00 0.00 0.00 46 1015.2
20260506184023 68 0 0.0 3.0 0.00 0.00 0.00 46 1015.1